Starlink 31983

operational
NORAD ID: 60602 Int'l Des: 2024-150 Owner: SPXS Country: US Constellation: starlink
LEOCIRCULAR

Starlink 31983について

説明を読み込み中...

リアルタイム位置

3D地球を読み込み中...

次回通過

高度履歴

Altitude vs Time

uPlot chart will show altitude changes over time

軌道要素

1 60602U 24150V 25352.31759396 -.00002101 00000-0 -58858-4 0 9990
2 60602 53.1618 324.9457 0001206 57.4612 302.6505 15.30188305 75500
Epoch: Dec 18, 2025 • Age: 21 hours

現在のステータス

高度 475.6 km
速度 7.63 km/s
衛星直下点 25.44°N, 168.4°W
打ち上げ日 Aug 20, 2024
運用期間 1.3 years
タイプ internet

技術仕様

分類 Payload
質量 730.00 kg
乾燥質量 700.00 kg
総質量 730.00 kg
長さ 0.30 m
直径 4.10 m
スパン 29.00 m
形状 Box + pan
製造者 SPXS
バスタイプ Starlink V2M
フェーズステータス In Orbit
所有者/国 SPXS/US

大規模コンステレーション

Loading constellations...